Time,TemperatureF,DewpointF,PressureIn,WindDirection,WindDirectionDegrees,WindSpeedMPH,WindSpeedGustMPH,Humidity,HourlyPrecipIn,Conditions,Clouds,dailyrainin,SoftwareType,DateUTC
2013-06-23 00:02:00,75.6,57.2,30.00,NE,39,10.9,10.9,53,0.00,,,0.00,WeatherDisplay:10.36,2013-06-23 05:02:00,
2013-06-23 00:07:00,75.4,57.1,30.00,NE,42,6.9,6.9,53,0.00,,,0.00,WeatherDisplay:10.36,2013-06-23 05:07:00,
2013-06-23 00:12:00,75.4,57.1,30.00,NE,42,10.9,10.9,53,0.00,,,0.00,WeatherDisplay:10.36,2013-06-23 05:12:00,
2013-06-23 00:17:00,75.4,57.6,29.97,NE,42,6.3,6.3,54,0.00,,,0.00,WeatherDisplay:10.36,2013-06-23 05:17:00,
2013-06-23 00:22:00,75.2,57.4,29.97,NE,42,6.9,6.9,54,0.00,,,0.00,WeatherDisplay:10.36,2013-06-23 05:22:00,
2013-06-23 00:27:00,75.2,57.4,29.97,NE,38,6.3,6.3,54,0.00,,,0.00,WeatherDisplay:10.36,2013-06-23 05:27:00,
2013-06-23 00:32:00,75.0,57.2,29.97,NE,43,10.5,10.5,54,0.00,,,0.00,WeatherDisplay:10.36,2013-06-23 05:32:00,
2013-06-23 00:37:00,75.0,57.8,29.97,NE,43,11.2,11.2,55,0.00,,,0.00,WeatherDisplay:10.36,2013-06-23 05:37:00,
2013-06-23 00:42:00,75.0,57.8,29.97,NE,38,9.2,9.2,55,0.00,,,0.00,WeatherDisplay:10.36,2013-06-23 05:42:00,
2013-06-23 00:47:00,74.8,57.6,29.97,NE,42,4.0,4.0,55,0.00,,,0.00,WeatherDisplay:10.36,2013-06-23 05:47:00,
2013-06-23 00:52:00,74.8,57.6,29.97,NE,42,6.9,6.9,55,0.00,,,0.00,WeatherDisplay:10.36,2013-06-23 05:52:00,
2013-06-23 00:57:00,74.7,57.9,29.97,NE,42,8.1,8.1,56,0.00,,,0.00,WeatherDisplay:10.36,2013-06-23 05:57:00,
2013-06-23 01:02:00,74.7,57.9,29.97,NE,40,4.9,0.0,56,0.00,,,0.00,WeatherDisplay:10.36,2013-06-23 06:02:00,
2013-06-23 01:03:00,74.7,57.9,29.97,NE,40,4.9,0.0,56,0.00,,,0.00,WeatherDisplay:10.36,2013-06-23 06:03:00,
2013-06-23 01:08:00,74.5,57.8,29.97,NE,42,4.0,4.0,56,0.00,,,0.00,WeatherDisplay:10.36,2013-06-23 06:08:00,
2013-06-23 01:13:00,74.5,57.8,29.97,NE,39,4.9,4.9,56,0.00,,,0.00,WeatherDisplay:10.36,2013-06-23 06:13:00,
2013-06-23 01:18:00,74.3,58.1,29.97,NE,42,5.8,5.8,57,0.00,,,0.00,WeatherDisplay:10.36,2013-06-23 06:18:00,
2013-06-23 01:23:00,74.1,57.9,29.97,NE,42,4.9,4.9,57,0.00,,,0.00,WeatherDisplay:10.36,2013-06-23 06:23:00,
2013-06-23 01:28:00,74.1,58.4,29.97,NE,42,3.6,0.0,58,0.00,,,0.00,WeatherDisplay:10.36,2013-06-23 06:28:00,
2013-06-23 01:33:00,74.1,58.4,29.97,NE,42,8.1,8.1,58,0.00,,,0.00,WeatherDisplay:10.36,2013-06-23 06:33:00,
2013-06-23 01:38:00,74.1,58.4,29.97,NE,42,4.6,4.6,58,0.00,,,0.00,WeatherDisplay:10.36,2013-06-23 06:38:00,
2013-06-23 01:43:00,74.1,58.4,29.97,NE,39,4.0,0.0,58,0.00,,,0.00,WeatherDisplay:10.36,2013-06-23 06:43:00,
2013-06-23 01:48:00,73.9,58.2,29.94,NE,39,0.0,0.0,58,0.00,,,0.00,WeatherDisplay:10.36,2013-06-23 06:48:00,
2013-06-23 01:53:00,73.9,58.7,29.94,NE,40,4.6,0.0,59,0.00,,,0.00,WeatherDisplay:10.36,2013-06-23 06:53:00,
2013-06-23 01:58:00,73.8,58.5,29.94,NE,36,4.6,4.6,59,0.00,,,0.00,WeatherDisplay:10.36,2013-06-23 06:58:00,
2013-06-23 02:03:00,73.8,58.5,29.94,NE,39,4.5,4.5,59,0.00,,,0.00,WeatherDisplay:10.36,2013-06-23 07:03:00,
2013-06-23 02:08:00,73.8,59.0,29.94,NE,43,5.8,5.8,60,0.00,,,0.00,WeatherDisplay:10.36,2013-06-23 07:08:00,
2013-06-23 02:13:00,73.6,58.8,29.94,NE,45,5.8,5.8,60,0.00,,,0.00,WeatherDisplay:10.36,2013-06-23 07:13:00,
2013-06-23 02:18:00,73.6,58.8,29.94,NE,40,4.6,4.6,60,0.00,,,0.00,WeatherDisplay:10.36,2013-06-23 07:18:00,
2013-06-23 02:23:00,73.6,59.3,29.94,NE,37,5.8,5.8,61,0.00,,,0.00,WeatherDisplay:10.36,2013-06-23 07:23:00,
2013-06-23 02:28:00,73.6,59.3,29.94,NE,43,3.5,0.0,61,0.00,,,0.00,WeatherDisplay:10.36,2013-06-23 07:28:00,
2013-06-23 02:33:00,73.4,59.6,29.94,NE,43,6.9,6.9,62,0.00,,,0.00,WeatherDisplay:10.36,2013-06-23 07:33:00,
2013-06-23 02:38:00,73.4,59.6,29.94,NE,45,5.4,5.4,62,0.00,,,0.00,WeatherDisplay:10.36,2013-06-23 07:38:00,
2013-06-23 02:43:00,73.4,60.0,29.94,NE,42,7.4,7.4,63,0.00,,,0.00,WeatherDisplay:10.36,2013-06-23 07:43:00,
2013-06-23 02:48:00,73.4,60.0,29.91,NE,44,7.4,7.4,63,0.00,,,0.00,WeatherDisplay:10.36,2013-06-23 07:48:00,
2013-06-23 02:53:00,73.2,60.3,29.91,NE,44,6.9,6.9,64,0.00,,,0.00,WeatherDisplay:10.36,2013-06-23 07:53:00,
2013-06-23 02:58:00,73.2,60.3,29.91,NE,44,5.8,0.0,64,0.00,,,0.00,WeatherDisplay:10.36,2013-06-23 07:58:00,
2013-06-23 03:03:00,73.2,60.3,29.91,NE,42,4.6,4.6,64,0.00,,,0.00,WeatherDisplay:10.36,2013-06-23 08:03:00,
2013-06-23 03:08:00,73.2,60.3,29.91,NE,43,5.8,5.8,64,0.00,,,0.00,WeatherDisplay:10.36,2013-06-23 08:08:00,
2013-06-23 03:13:00,73.2,60.7,29.91,NE,42,6.9,6.9,65,0.00,,,0.00,WeatherDisplay:10.36,2013-06-23 08:13:00,
2013-06-23 03:18:00,73.2,60.7,29.91,NE,43,3.6,0.0,65,0.00,,,0.00,WeatherDisplay:10.36,2013-06-23 08:18:00,
2013-06-23 03:23:00,73.2,60.7,29.91,NE,44,3.5,0.0,65,0.00,,,0.00,WeatherDisplay:10.36,2013-06-23 08:23:00,
2013-06-23 03:28:00,73.2,60.7,29.91,NNE,32,4.6,0.0,65,0.00,,,0.00,WeatherDisplay:10.36,2013-06-23 08:28:00,
2013-06-23 03:33:00,73.2,60.7,29.91,NE,44,6.9,0.0,65,0.00,,,0.00,WeatherDisplay:10.36,2013-06-23 08:33:00,
2013-06-23 03:38:00,73.2,60.7,29.91,NE,42,2.3,0.0,65,0.00,,,0.00,WeatherDisplay:10.36,2013-06-23 08:38:00,
2013-06-23 03:43:00,73.2,60.7,29.91,NE,39,0.0,0.0,65,0.00,,,0.00,WeatherDisplay:10.36,2013-06-23 08:43:00,
2013-06-23 03:48:00,73.2,60.7,29.94,NE,39,0.0,0.0,65,0.00,,,0.00,WeatherDisplay:10.36,2013-06-23 08:48:00,
2013-06-23 03:53:00,73.0,60.6,29.94,NE,40,0.0,0.0,65,0.00,,,0.00,WeatherDisplay:10.36,2013-06-23 08:53:00,
2013-06-23 03:58:00,73.0,60.6,29.94,NE,39,2.7,0.0,65,0.00,,,0.00,WeatherDisplay:10.36,2013-06-23 08:58:00,
2013-06-23 04:03:00,73.0,60.6,29.94,NE,41,2.7,0.0,65,0.00,,,0.00,WeatherDisplay:10.36,2013-06-23 09:03:00,
2013-06-23 04:08:00,73.0,60.6,29.94,NE,40,3.1,0.0,65,0.00,,,0.00,WeatherDisplay:10.36,2013-06-23 09:08:00,
2013-06-23 04:13:00,73.0,60.6,29.94,NE,38,0.0,0.0,65,0.00,,,0.00,WeatherDisplay:10.36,2013-06-23 09:13:00,
2013-06-23 04:18:00,72.9,60.4,29.94,NE,39,0.0,0.0,65,0.00,,,0.00,WeatherDisplay:10.36,2013-06-23 09:18:00,
2013-06-23 04:24:00,72.9,60.4,29.94,NE,41,3.1,0.0,65,0.00,,,0.00,WeatherDisplay:10.36,2013-06-23 09:24:00,
2013-06-23 04:29:00,72.9,60.4,29.94,NE,39,0.0,0.0,65,0.00,,,0.00,WeatherDisplay:10.36,2013-06-23 09:29:00,
2013-06-23 04:34:00,72.7,60.2,29.97,NE,37,4.9,4.9,65,0.00,,,0.00,WeatherDisplay:10.36,2013-06-23 09:34:00,
2013-06-23 04:39:00,72.7,60.2,29.97,NE,39,3.1,0.0,65,0.00,,,0.00,WeatherDisplay:10.36,2013-06-23 09:39:00,
2013-06-23 04:44:00,72.7,60.2,29.97,NE,41,2.7,0.0,65,0.00,,,0.00,WeatherDisplay:10.36,2013-06-23 09:44:00,
2013-06-23 04:49:00,72.5,60.5,29.97,NE,41,5.8,5.8,66,0.00,,,0.00,WeatherDisplay:10.36,2013-06-23 09:49:00,
2013-06-23 04:54:00,72.5,60.5,29.97,NE,42,3.5,0.0,66,0.00,,,0.00,WeatherDisplay:10.36,2013-06-23 09:54:00,
2013-06-23 04:59:00,72.3,60.3,29.97,NE,36,3.5,0.0,66,0.00,,,0.00,WeatherDisplay:10.36,2013-06-23 09:59:00,
2013-06-23 05:04:00,72.3,60.3,29.97,NE,39,4.6,4.6,66,0.00,,,0.00,WeatherDisplay:10.36,2013-06-23 10:04:00,
2013-06-23 05:09:00,72.3,60.3,29.97,NE,37,5.8,0.0,66,0.00,,,0.00,WeatherDisplay:10.36,2013-06-23 10:09:00,
2013-06-23 05:15:00,72.3,60.3,29.97,NE,37,5.8,0.0,66,0.00,,,0.00,WeatherDisplay:10.36,2013-06-23 10:15:00,
2013-06-23 05:20:00,72.1,60.2,30.00,NE,38,5.8,5.8,66,0.00,,,0.00,WeatherDisplay:10.36,2013-06-23 10:20:00,
2013-06-23 05:25:00,72.1,60.6,30.00,NE,38,3.5,0.0,67,0.00,,,0.00,WeatherDisplay:10.36,2013-06-23 10:25:00,
2013-06-23 05:30:00,72.1,60.2,30.00,NE,38,3.5,0.0,66,0.00,,,0.00,WeatherDisplay:10.36,2013-06-23 10:30:00,
2013-06-23 05:36:00,72.1,60.2,29.97,NE,38,3.5,3.5,66,0.00,,,0.00,WeatherDisplay:10.36,2013-06-23 10:36:00,
2013-06-23 05:41:00,72.0,60.0,29.97,NE,37,3.6,3.6,66,0.00,,,0.00,WeatherDisplay:10.36,2013-06-23 10:41:00,
2013-06-23 05:46:00,72.0,60.4,29.97,NE,39,6.9,6.9,67,0.00,,,0.00,WeatherDisplay:10.36,2013-06-23 10:46:00,
2013-06-23 05:51:00,72.0,60.4,30.00,NE,41,4.9,4.9,67,0.00,,,0.00,WeatherDisplay:10.36,2013-06-23 10:51:00,
2013-06-23 05:56:00,72.0,60.0,30.00,NE,39,6.9,6.9,66,0.00,,,0.00,WeatherDisplay:10.36,2013-06-23 10:56:00,
2013-06-23 06:01:00,72.1,60.6,30.00,NE,39,6.3,6.3,67,0.00,,,0.00,WeatherDisplay:10.36,2013-06-23 11:01:00,
2013-06-23 06:06:00,72.1,60.6,29.97,NE,39,6.9,6.9,67,0.00,,,0.00,WeatherDisplay:10.36,2013-06-23 11:06:00,
2013-06-23 06:11:00,72.1,60.6,29.97,NE,42,6.3,6.3,67,0.00,,,0.00,WeatherDisplay:10.36,2013-06-23 11:11:00,
2013-06-23 06:16:00,72.1,60.6,29.97,NE,40,4.6,4.6,67,0.00,,,0.00,WeatherDisplay:10.36,2013-06-23 11:16:00,
2013-06-23 06:21:00,72.3,60.7,29.97,NE,43,6.9,6.9,67,0.00,,,0.00,WeatherDisplay:10.36,2013-06-23 11:21:00,
2013-06-23 06:26:00,72.3,60.7,29.97,NE,37,5.8,5.8,67,0.00,,,0.00,WeatherDisplay:10.36,2013-06-23 11:26:00,
2013-06-23 06:31:00,72.3,60.7,29.97,NE,40,4.0,4.0,67,0.00,,,0.00,WeatherDisplay:10.36,2013-06-23 11:31:00,
2013-06-23 06:36:00,72.5,60.9,30.00,NE,42,5.4,5.4,67,0.00,,,0.00,WeatherDisplay:10.36,2013-06-23 11:36:00,
2013-06-23 06:41:00,72.5,60.9,30.00,NE,37,5.8,5.8,67,0.00,,,0.00,WeatherDisplay:10.36,2013-06-23 11:41:00,
2013-06-23 06:46:00,72.7,60.7,30.00,NE,39,6.9,6.9,66,0.00,,,0.00,WeatherDisplay:10.36,2013-06-23 11:46:00,
2013-06-23 06:51:00,73.0,61.0,30.00,NE,43,6.9,6.9,66,0.00,,,0.00,WeatherDisplay:10.36,2013-06-23 11:51:00,
2013-06-23 06:56:00,73.0,61.0,30.00,NE,39,7.4,7.4,66,0.00,,,0.00,WeatherDisplay:10.36,2013-06-23 11:56:00,
2013-06-23 07:01:00,73.0,61.0,30.00,NE,40,7.4,7.4,66,0.00,,,0.00,WeatherDisplay:10.36,2013-06-23 12:01:00,
2013-06-23 07:06:00,73.0,61.0,30.00,NE,42,10.4,10.4,66,0.00,,,0.00,WeatherDisplay:10.36,2013-06-23 12:06:00,
2013-06-23 07:12:00,73.0,61.0,30.00,NE,41,4.6,4.6,66,0.00,,,0.00,WeatherDisplay:10.36,2013-06-23 12:12:00,
2013-06-23 07:18:00,73.2,61.2,30.00,NE,38,4.6,4.6,66,0.00,,,0.00,WeatherDisplay:10.36,2013-06-23 12:18:00,
2013-06-23 07:23:00,73.2,61.2,30.00,NE,43,5.8,5.8,66,0.00,,,0.00,WeatherDisplay:10.36,2013-06-23 12:23:00,
2013-06-23 07:28:00,73.2,61.2,30.00,NE,39,4.0,4.0,66,0.00,,,0.00,WeatherDisplay:10.36,2013-06-23 12:28:00,
2013-06-23 07:33:00,73.4,61.3,29.97,NE,39,6.9,6.9,66,0.00,,,0.00,WeatherDisplay:10.36,2013-06-23 12:33:00,
2013-06-23 07:38:00,73.6,61.1,29.97,NE,39,6.9,6.9,65,0.00,,,0.00,WeatherDisplay:10.36,2013-06-23 12:38:00,
2013-06-23 07:43:00,73.6,61.1,29.97,NE,43,8.1,8.1,65,0.00,,,0.00,WeatherDisplay:10.36,2013-06-23 12:43:00,
2013-06-23 07:48:00,73.8,61.3,29.97,NE,40,8.1,8.1,65,0.00,,,0.00,WeatherDisplay:10.36,2013-06-23 12:48:00,
2013-06-23 07:53:00,73.9,61.4,29.97,NE,40,5.8,5.8,65,0.00,,,0.00,WeatherDisplay:10.36,2013-06-23 12:53:00,
2013-06-23 07:58:00,74.1,61.6,29.97,NE,40,8.3,8.3,65,0.00,,,0.00,WeatherDisplay:10.36,2013-06-23 12:58:00,
2013-06-23 08:03:00,74.3,61.8,29.97,NE,41,4.9,4.9,65,0.00,,,0.00,WeatherDisplay:10.36,2013-06-23 13:03:00,
2013-06-23 08:08:00,74.5,61.5,29.97,NE,40,4.6,4.6,64,0.00,,,0.00,WeatherDisplay:10.36,2013-06-23 13:08:00,
2013-06-23 08:14:00,74.7,61.7,29.97,NE,40,5.8,5.8,64,0.00,,,0.00,WeatherDisplay:10.36,2013-06-23 13:14:00,
2013-06-23 08:19:00,74.8,61.8,29.97,NE,40,10.5,10.5,64,0.00,,,0.00,WeatherDisplay:10.36,2013-06-23 13:19:00,
2013-06-23 08:24:00,75.0,62.0,29.97,NE,43,10.4,10.4,64,0.00,,,0.00,WeatherDisplay:10.36,2013-06-23 13:24:00,
2013-06-23 08:29:00,75.2,61.7,29.97,NE,42,5.8,5.8,63,0.00,,,0.00,WeatherDisplay:10.36,2013-06-23 13:29:00,
2013-06-23 08:34:00,75.4,61.9,29.97,NE,41,5.8,0.0,63,0.00,,,0.00,WeatherDisplay:10.36,2013-06-23 13:34:00,
2013-06-23 08:39:00,75.7,62.7,29.97,NNE,33,5.8,5.8,64,0.00,,,0.00,WeatherDisplay:10.36,2013-06-23 13:39:00,
2013-06-23 08:44:00,76.3,62.8,29.97,NE,41,6.9,6.9,63,0.00,,,0.00,WeatherDisplay:10.36,2013-06-23 13:44:00,
2013-06-23 08:49:00,76.8,62.8,29.97,NE,41,6.9,6.9,62,0.00,,,0.00,WeatherDisplay:10.36,2013-06-23 13:49:00,
2013-06-23 08:54:00,77.2,62.7,29.97,NE,38,7.4,7.4,61,0.00,,,0.00,WeatherDisplay:10.36,2013-06-23 13:54:00,
2013-06-23 08:59:00,77.7,62.7,29.97,NE,38,5.4,0.0,60,0.00,,,0.00,WeatherDisplay:10.36,2013-06-23 13:59:00,
2013-06-23 09:04:00,78.1,62.1,29.97,NE,41,6.9,6.9,58,0.00,,,0.00,WeatherDisplay:10.36,2013-06-23 14:04:00,
2013-06-23 09:09:00,78.3,62.3,29.97,NE,41,4.6,4.6,58,0.00,,,0.00,WeatherDisplay:10.36,2013-06-23 14:09:00,
2013-06-23 09:14:00,78.6,62.6,29.97,NE,40,10.4,10.4,58,0.00,,,0.00,WeatherDisplay:10.36,2013-06-23 14:14:00,
2013-06-23 09:19:00,78.8,62.3,30.00,NE,37,4.0,4.0,57,0.00,,,0.00,WeatherDisplay:10.36,2013-06-23 14:19:00,
2013-06-23 09:24:00,79.0,62.4,30.00,NE,38,10.4,10.4,57,0.00,,,0.00,WeatherDisplay:10.36,2013-06-23 14:24:00,
2013-06-23 09:29:00,79.2,62.6,30.00,NE,38,9.2,9.2,57,0.00,,,0.00,WeatherDisplay:10.36,2013-06-23 14:29:00,
2013-06-23 09:34:00,79.2,62.6,30.00,NE,39,9.2,9.2,57,0.00,,,0.00,WeatherDisplay:10.36,2013-06-23 14:34:00,
2013-06-23 09:39:00,79.5,62.9,30.00,NE,36,5.8,5.8,57,0.00,,,0.00,WeatherDisplay:10.36,2013-06-23 14:39:00,
2013-06-23 09:44:00,79.7,62.6,30.00,NE,41,10.5,10.5,56,0.00,,,0.00,WeatherDisplay:10.36,2013-06-23 14:44:00,
2013-06-23 09:49:00,79.9,62.8,30.00,NE,42,9.2,9.2,56,0.00,,,0.00,WeatherDisplay:10.36,2013-06-23 14:49:00,
2013-06-23 09:54:00,80.2,63.1,30.00,NE,41,9.2,9.2,56,0.00,,,0.00,WeatherDisplay:10.36,2013-06-23 14:54:00,
2013-06-23 09:59:00,80.6,62.9,30.00,NE,43,10.5,10.5,55,0.00,,,0.00,WeatherDisplay:10.36,2013-06-23 14:59:00,
2013-06-23 10:04:00,80.8,63.6,30.00,NE,40,6.9,6.9,56,0.00,,,0.00,WeatherDisplay:10.36,2013-06-23 15:04:00,
2013-06-23 10:10:00,81.3,64.1,30.00,NE,42,6.9,6.9,56,0.00,,,0.00,WeatherDisplay:10.36,2013-06-23 15:10:00,
2013-06-23 10:15:00,82.0,64.3,30.00,NE,39,3.6,3.6,55,0.00,,,0.00,WeatherDisplay:10.36,2013-06-23 15:15:00,
2013-06-23 10:20:00,82.6,64.3,30.00,NE,39,9.2,9.2,54,0.00,,,0.00,WeatherDisplay:10.36,2013-06-23 15:20:00,
2013-06-23 10:25:00,82.9,63.5,30.00,NE,37,9.6,9.6,52,0.00,,,0.00,WeatherDisplay:10.36,2013-06-23 15:25:00,
2013-06-23 10:30:00,82.9,63.0,30.00,NE,41,6.3,6.3,51,0.00,,,0.00,WeatherDisplay:10.36,2013-06-23 15:30:00,
2013-06-23 10:35:00,82.9,63.5,30.00,NE,41,8.1,8.1,52,0.00,,,0.00,WeatherDisplay:10.36,2013-06-23 15:35:00,
2013-06-23 10:41:00,83.1,63.1,30.00,NE,41,9.2,9.2,51,0.00,,,0.00,WeatherDisplay:10.36,2013-06-23 15:41:00,
2013-06-23 10:46:00,83.3,63.8,30.00,NE,42,9.2,9.2,52,0.00,,,0.00,WeatherDisplay:10.36,2013-06-23 15:46:00,
2013-06-23 10:51:00,83.7,63.6,30.00,NE,42,5.8,5.8,51,0.00,,,0.00,WeatherDisplay:10.36,2013-06-23 15:51:00,
2013-06-23 10:56:00,84.0,63.9,30.00,NE,41,8.1,8.1,51,0.00,,,0.00,WeatherDisplay:10.36,2013-06-23 15:56:00,
2013-06-23 11:04:00,84.6,63.3,30.00,NE,41,6.3,6.3,49,0.00,,,0.00,WeatherDisplay:10.36,2013-06-23 16:04:00,
2013-06-23 11:10:00,84.9,64.2,30.00,NE,38,10.4,10.4,50,0.00,,,0.00,WeatherDisplay:10.36,2013-06-23 16:10:00,
2013-06-23 11:15:00,85.1,63.2,30.00,NE,40,8.1,8.1,48,0.00,,,0.00,WeatherDisplay:10.36,2013-06-23 16:15:00,
2013-06-23 11:20:00,85.1,63.2,30.00,NE,38,6.9,6.9,48,0.00,,,0.00,WeatherDisplay:10.36,2013-06-23 16:20:00,
2013-06-23 11:25:00,85.5,64.1,30.00,NE,38,11.5,11.5,49,0.00,,,0.00,WeatherDisplay:10.36,2013-06-23 16:25:00,
2013-06-23 11:30:00,85.6,64.3,30.00,NE,43,5.4,0.0,49,0.00,,,0.00,WeatherDisplay:10.36,2013-06-23 16:30:00,
2013-06-23 11:36:00,86.2,64.2,30.00,NE,36,5.8,5.8,48,0.00,,,0.00,WeatherDisplay:10.36,2013-06-23 16:36:00,
2013-06-23 11:42:00,86.4,64.4,30.00,NE,42,7.4,7.4,48,0.00,,,0.00,WeatherDisplay:10.36,2013-06-23 16:42:00,
2013-06-23 11:47:00,86.5,63.9,30.00,NE,38,6.9,6.9,47,0.00,,,0.00,WeatherDisplay:10.36,2013-06-23 16:47:00,
2013-06-23 11:52:00,86.7,64.1,30.00,NE,38,6.9,6.9,47,0.00,,,0.00,WeatherDisplay:10.36,2013-06-23 16:52:00,
2013-06-23 11:57:00,86.9,64.2,30.00,NE,43,7.8,7.8,47,0.00,,,0.00,WeatherDisplay:10.36,2013-06-23 16:57:00,
2013-06-23 11:58:00,86.9,64.2,30.00,NE,41,8.1,8.1,47,0.00,,,0.00,WeatherDisplay:10.36,2013-06-23 16:58:00,
2013-06-23 11:59:00,86.9,63.0,30.00,NE,40,6.3,6.3,45,0.00,,,0.00,WeatherDisplay:10.36,2013-06-23 16:59:00,
2013-06-23 12:00:00,86.9,63.0,30.00,NE,43,5.8,5.8,45,0.00,,,0.00,WeatherDisplay:10.36,2013-06-23 17:00:00,
2013-06-23 12:01:00,87.1,63.8,30.00,NE,44,4.0,4.0,46,0.00,,,0.00,WeatherDisplay:10.36,2013-06-23 17:01:00,
2013-06-23 12:06:00,87.3,64.0,30.00,NE,42,6.9,6.9,46,0.00,,,0.00,WeatherDisplay:10.36,2013-06-23 17:06:00,
2013-06-23 12:09:00,87.4,63.5,30.00,NE,38,6.9,6.9,45,0.00,,,0.00,WeatherDisplay:10.36,2013-06-23 17:09:00,
2013-06-23 12:14:00,87.4,62.8,30.00,NE,36,6.9,6.9,44,0.00,,,0.00,WeatherDisplay:10.36,2013-06-23 17:14:00,
2013-06-23 12:19:00,87.6,63.0,30.00,NE,39,10.1,10.1,44,0.00,,,0.00,WeatherDisplay:10.36,2013-06-23 17:19:00,
2013-06-23 12:24:00,87.6,63.0,30.00,NE,41,6.9,6.9,44,0.00,,,0.00,WeatherDisplay:10.36,2013-06-23 17:24:00,
2013-06-23 12:29:00,87.8,63.2,30.00,NE,40,6.9,6.9,44,0.00,,,0.00,WeatherDisplay:10.36,2013-06-23 17:29:00,
2013-06-23 12:34:00,88.0,63.3,30.00,NE,41,4.6,4.6,44,0.00,,,0.00,WeatherDisplay:10.36,2013-06-23 17:34:00,
2013-06-23 12:39:00,88.2,63.5,30.00,NE,38,8.3,8.3,44,0.00,,,0.00,WeatherDisplay:10.36,2013-06-23 17:39:00,
2013-06-23 12:44:00,88.2,62.8,30.00,NE,42,9.2,9.2,43,0.00,,,0.00,WeatherDisplay:10.36,2013-06-23 17:44:00,
2013-06-23 12:49:00,88.2,63.5,29.97,NE,42,6.7,6.7,44,0.00,,,0.00,WeatherDisplay:10.36,2013-06-23 17:49:00,
2013-06-23 12:54:00,88.3,63.0,29.97,NE,40,7.8,7.8,43,0.00,,,0.00,WeatherDisplay:10.36,2013-06-23 17:54:00,
2013-06-23 12:59:00,88.5,63.8,29.97,NE,41,8.1,8.1,44,0.00,,,0.00,WeatherDisplay:10.36,2013-06-23 17:59:00,
2013-06-23 13:04:00,88.7,63.3,29.97,NE,41,8.3,8.3,43,0.00,,,0.00,WeatherDisplay:10.36,2013-06-23 18:04:00,
2013-06-23 13:09:00,88.7,62.7,29.97,NE,39,6.9,6.9,42,0.00,,,0.00,WeatherDisplay:10.36,2013-06-23 18:09:00,
2013-06-23 13:14:00,88.9,62.8,29.97,NE,41,12.7,12.7,42,0.00,,,0.00,WeatherDisplay:10.36,2013-06-23 18:14:00,
2013-06-23 13:19:00,88.9,62.8,29.94,NE,41,6.9,6.9,42,0.00,,,0.00,WeatherDisplay:10.36,2013-06-23 18:19:00,
2013-06-23 13:24:00,89.2,63.1,29.94,NE,39,10.9,10.9,42,0.00,,,0.00,WeatherDisplay:10.36,2013-06-23 18:24:00,
2013-06-23 13:29:00,89.4,62.6,29.94,NE,40,8.7,8.7,41,0.00,,,0.00,WeatherDisplay:10.36,2013-06-23 18:29:00,
2013-06-23 13:34:00,89.4,62.6,29.94,NE,41,7.4,7.4,41,0.00,,,0.00,WeatherDisplay:10.36,2013-06-23 18:34:00,
2013-06-23 13:39:00,89.4,62.6,29.94,NE,41,11.5,11.5,41,0.00,,,0.00,WeatherDisplay:10.36,2013-06-23 18:39:00,
2013-06-23 13:44:00,89.8,64.3,29.94,NE,39,6.9,6.9,43,0.00,,,0.00,WeatherDisplay:10.36,2013-06-23 18:44:00,
2013-06-23 13:49:00,90.3,63.4,29.94,NE,40,9.6,9.6,41,0.00,,,0.00,WeatherDisplay:10.36,2013-06-23 18:49:00,
2013-06-23 13:54:00,90.7,62.3,29.94,NE,35,8.1,8.1,39,0.00,,,0.00,WeatherDisplay:10.36,2013-06-23 18:54:00,
2013-06-23 13:59:00,90.9,62.5,29.94,NE,42,12.1,12.1,39,0.00,,,0.00,WeatherDisplay:10.36,2013-06-23 18:59:00,
2013-06-23 14:04:00,91.0,62.6,29.94,NE,40,5.8,5.8,39,0.00,,,0.00,WeatherDisplay:10.36,2013-06-23 19:04:00,
2013-06-23 14:09:00,91.6,62.4,29.94,NE,41,6.9,6.9,38,0.00,,,0.00,WeatherDisplay:10.36,2013-06-23 19:09:00,
2013-06-23 14:14:00,91.0,59.6,29.94,NE,44,11.5,11.5,35,0.00,,,0.00,WeatherDisplay:10.36,2013-06-23 19:14:00,
2013-06-23 14:19:00,88.7,55.1,29.97,NE,43,9.2,9.2,32,0.00,,,0.00,WeatherDisplay:10.36,2013-06-23 19:19:00,
2013-06-23 14:24:00,84.9,57.2,29.97,NE,43,4.9,4.9,39,0.00,,,0.00,WeatherDisplay:10.36,2013-06-23 19:24:00,
2013-06-23 14:29:00,82.6,60.3,29.97,NE,45,12.7,12.7,47,0.00,,,0.04,WeatherDisplay:10.36,2013-06-23 19:29:00,
2013-06-23 14:34:00,78.1,61.1,30.00,NNE,27,8.3,8.3,56,0.16,RA,RA,0.20,WeatherDisplay:10.36,2013-06-23 19:34:00,
2013-06-23 14:39:00,74.3,62.6,30.00,North,351,6.7,6.7,67,0.51,RA,RA,0.55,WeatherDisplay:10.36,2013-06-23 19:39:00,
2013-06-23 14:44:00,72.3,63.2,30.00,NNE,32,5.8,5.8,73,0.75,RA,RA,0.79,WeatherDisplay:10.36,2013-06-23 19:44:00,
2013-06-23 14:49:00,71.6,64.0,30.03,NE,45,0.0,0.0,77,0.94,RA,RA,0.98,WeatherDisplay:10.36,2013-06-23 19:49:00,
2013-06-23 14:54:00,71.4,64.6,30.03,NE,44,0.0,0.0,79,1.06,RA,RA,1.10,WeatherDisplay:10.36,2013-06-23 19:54:00,
2013-06-23 14:59:00,71.4,64.9,30.03,NE,42,0.0,0.0,80,1.14,RA,RA,1.18,WeatherDisplay:10.36,2013-06-23 19:59:00,
2013-06-23 15:05:00,71.6,65.5,30.03,NE,42,0.0,0.0,81,1.30,RA,RA,1.34,WeatherDisplay:10.36,2013-06-23 20:05:00,
2013-06-23 15:10:00,71.8,66.0,30.03,NE,44,0.0,0.0,82,1.38,RA,RA,1.38,WeatherDisplay:10.36,2013-06-23 20:10:00,
2013-06-23 15:15:00,72.0,66.5,30.03,NE,45,0.0,0.0,83,1.38,RA,RA,1.38,WeatherDisplay:10.36,2013-06-23 20:15:00,
2013-06-23 15:21:00,72.1,66.7,30.03,NE,42,0.0,0.0,83,1.38,,,1.38,WeatherDisplay:10.36,2013-06-23 20:21:00,
2013-06-23 15:26:00,72.1,67.0,30.03,NE,44,0.0,0.0,84,1.38,,,1.38,WeatherDisplay:10.36,2013-06-23 20:26:00,
2013-06-23 15:31:00,72.0,66.9,30.03,NE,43,0.0,0.0,84,1.26,,,1.38,WeatherDisplay:10.36,2013-06-23 20:31:00,
2013-06-23 15:36:00,72.0,67.2,30.00,NE,42,0.0,0.0,85,1.10,,,1.38,WeatherDisplay:10.36,2013-06-23 20:36:00,
2013-06-23 15:41:00,71.8,67.0,30.00,NE,43,0.0,0.0,85,0.71,,,1.38,WeatherDisplay:10.36,2013-06-23 20:41:00,
2013-06-23 15:46:00,71.8,67.4,30.00,NE,42,0.0,0.0,86,0.55,,,1.38,WeatherDisplay:10.36,2013-06-23 20:46:00,
2013-06-23 15:51:00,71.8,67.4,30.00,NE,44,0.0,0.0,86,0.39,,,1.38,WeatherDisplay:10.36,2013-06-23 20:51:00,
2013-06-23 15:56:00,71.6,67.2,30.00,NE,45,3.5,0.0,86,0.28,,,1.38,WeatherDisplay:10.36,2013-06-23 20:56:00,
2013-06-23 16:01:00,71.6,67.5,30.00,NE,41,4.6,4.6,87,0.16,,,1.38,WeatherDisplay:10.36,2013-06-23 21:01:00,
2013-06-23 16:06:00,71.4,67.3,30.00,NE,39,3.5,3.5,87,0.04,,,1.38,WeatherDisplay:10.36,2013-06-23 21:06:00,
2013-06-23 16:11:00,71.4,67.7,30.00,NE,41,0.0,0.0,88,0.00,,,1.38,WeatherDisplay:10.36,2013-06-23 21:11:00,
2013-06-23 16:16:00,71.6,67.9,30.00,NE,40,0.0,0.0,88,0.00,,,1.38,WeatherDisplay:10.36,2013-06-23 21:16:00,
2013-06-23 16:21:00,71.8,68.0,29.97,NE,39,3.6,3.6,88,0.00,,,1.38,WeatherDisplay:10.36,2013-06-23 21:21:00,
2013-06-23 16:26:00,72.0,68.2,29.97,NE,41,4.0,4.0,88,0.00,,,1.38,WeatherDisplay:10.36,2013-06-23 21:26:00,
2013-06-23 16:31:00,72.1,68.7,29.97,NE,39,4.9,4.9,89,0.00,,,1.38,WeatherDisplay:10.36,2013-06-23 21:31:00,
2013-06-23 16:36:00,72.3,68.9,29.94,NE,41,4.6,4.6,89,0.00,,,1.38,WeatherDisplay:10.36,2013-06-23 21:36:00,
2013-06-23 16:41:00,72.5,69.1,29.94,NE,41,5.4,5.4,89,0.04,RA,RA,1.42,WeatherDisplay:10.36,2013-06-23 21:41:00,
2013-06-23 16:46:00,72.5,69.1,29.94,NE,39,3.6,3.6,89,0.04,RA,RA,1.42,WeatherDisplay:10.36,2013-06-23 21:46:00,
2013-06-23 16:51:00,72.5,68.7,29.91,NE,39,0.0,0.0,88,0.04,,,1.42,WeatherDisplay:10.36,2013-06-23 21:51:00,
2013-06-23 16:56:00,72.7,68.9,29.91,NE,41,4.9,4.9,88,0.04,,,1.42,WeatherDisplay:10.36,2013-06-23 21:56:00,
2013-06-23 17:01:00,72.7,68.9,29.91,NE,40,7.8,7.8,88,0.04,,,1.42,WeatherDisplay:10.36,2013-06-23 22:01:00,
2013-06-23 17:06:00,72.7,68.9,29.88,NE,41,9.2,9.2,88,0.04,,,1.42,WeatherDisplay:10.36,2013-06-23 22:06:00,
2013-06-23 17:11:00,72.7,68.9,29.88,NE,41,6.3,6.3,88,0.04,,,1.42,WeatherDisplay:10.36,2013-06-23 22:11:00,
2013-06-23 17:16:00,72.7,68.9,29.88,NNE,33,7.8,7.8,88,0.04,,,1.42,WeatherDisplay:10.36,2013-06-23 22:16:00,
2013-06-23 17:21:00,72.5,68.4,29.85,NNE,28,5.8,0.0,87,0.04,,,1.42,WeatherDisplay:10.36,2013-06-23 22:21:00,
2013-06-23 17:26:00,72.0,66.2,29.85,NNE,27,3.5,0.0,82,0.04,,,1.42,WeatherDisplay:10.36,2013-06-23 22:26:00,
2013-06-23 17:31:00,72.0,66.9,29.85,NE,36,10.9,10.9,84,0.04,,,1.42,WeatherDisplay:10.36,2013-06-23 22:31:00,
2013-06-23 17:36:00,72.5,67.7,29.85,NE,41,10.5,10.5,85,0.04,,,1.42,WeatherDisplay:10.36,2013-06-23 22:36:00,
2013-06-23 17:41:00,72.9,67.7,29.85,NE,42,11.2,11.2,84,0.00,,,1.42,WeatherDisplay:10.36,2013-06-23 22:41:00,
2013-06-23 17:46:00,73.2,67.7,29.85,NE,43,10.9,10.9,83,0.00,,,1.42,WeatherDisplay:10.36,2013-06-23 22:46:00,
2013-06-23 17:51:00,73.4,66.9,29.85,NE,37,9.2,9.2,80,0.00,,,1.42,WeatherDisplay:10.36,2013-06-23 22:51:00,
2013-06-23 17:56:00,73.6,66.3,29.85,NE,35,9.6,9.6,78,0.00,,,1.42,WeatherDisplay:10.36,2013-06-23 22:56:00,
2013-06-23 18:01:00,73.8,66.1,29.85,NE,37,5.8,5.8,77,0.00,,,1.42,WeatherDisplay:10.36,2013-06-23 23:01:00,
2013-06-23 18:06:00,73.8,64.2,29.88,NNE,27,4.6,4.6,72,0.00,,,1.42,WeatherDisplay:10.36,2013-06-23 23:06:00,
2013-06-23 18:11:00,73.6,64.0,29.88,NNE,29,2.3,0.0,72,0.00,,,1.42,WeatherDisplay:10.36,2013-06-23 23:11:00,
2013-06-23 18:17:00,73.6,64.4,29.88,NNE,29,3.6,3.6,73,0.00,,,1.42,WeatherDisplay:10.36,2013-06-23 23:17:00,
2013-06-23 18:22:00,73.4,64.6,29.88,NE,37,4.6,4.6,74,0.00,,,1.42,WeatherDisplay:10.36,2013-06-23 23:22:00,
2013-06-23 18:27:00,73.6,65.2,29.88,NE,39,0.0,0.0,75,0.00,,,1.42,WeatherDisplay:10.36,2013-06-23 23:27:00,
2013-06-23 18:32:00,73.6,65.2,29.88,NNE,30,3.6,0.0,75,0.00,,,1.42,WeatherDisplay:10.36,2013-06-23 23:32:00,
2013-06-23 18:37:00,73.4,65.0,29.88,NNE,28,4.0,4.0,75,0.00,,,1.42,WeatherDisplay:10.36,2013-06-23 23:37:00,
2013-06-23 18:43:00,73.4,65.4,29.88,NNE,30,4.0,4.0,76,0.00,,,1.42,WeatherDisplay:10.36,2013-06-23 23:43:00,
2013-06-23 18:48:00,73.4,65.7,29.91,North,351,5.4,5.4,77,0.00,,,1.42,WeatherDisplay:10.36,2013-06-23 23:48:00,
2013-06-23 18:53:00,73.2,65.9,29.91,North,351,0.0,0.0,78,0.00,,,1.42,WeatherDisplay:10.36,2013-06-23 23:53:00,
2013-06-23 18:58:00,73.2,66.3,29.91,North,351,0.0,0.0,79,0.00,,,1.42,WeatherDisplay:10.36,2013-06-23 23:58:00,
2013-06-23 19:03:00,73.2,66.3,30.62,North,351,0.0,0.0,79,0.00,,,1.42,WeatherDisplay:10.36,2013-06-24 00:03:00,
2013-06-23 19:08:00,73.2,66.3,30.62,NE,44,0.0,0.0,79,0.00,,,1.42,WeatherDisplay:10.36,2013-06-24 00:08:00,
2013-06-23 19:13:00,73.2,66.3,30.62,NE,43,0.0,0.0,79,0.00,,,1.42,WeatherDisplay:10.36,2013-06-24 00:13:00,
2013-06-23 19:18:00,73.2,66.7,29.94,NE,41,4.6,4.6,80,0.00,,,1.42,WeatherDisplay:10.36,2013-06-24 00:18:00,
2013-06-23 19:23:00,73.0,66.5,29.94,NE,42,0.0,0.0,80,0.00,,,1.42,WeatherDisplay:10.36,2013-06-24 00:23:00,
2013-06-23 19:28:00,73.0,66.5,29.94,NE,43,0.0,0.0,80,0.00,,,1.42,WeatherDisplay:10.36,2013-06-24 00:28:00,
2013-06-23 19:33:00,73.0,66.5,29.94,NE,41,0.0,0.0,80,0.00,,,1.42,WeatherDisplay:10.36,2013-06-24 00:33:00,
2013-06-23 19:38:00,72.9,66.3,29.94,NE,43,0.0,0.0,80,0.00,,,1.42,WeatherDisplay:10.36,2013-06-24 00:38:00,
2013-06-23 19:43:00,72.7,66.2,29.94,NE,43,0.0,0.0,80,0.00,,,1.42,WeatherDisplay:10.36,2013-06-24 00:43:00,
2013-06-23 19:48:00,72.9,66.3,29.97,NE,42,2.3,0.0,80,0.00,,,1.42,WeatherDisplay:10.36,2013-06-24 00:48:00,
2013-06-23 19:53:00,72.9,66.7,29.97,NE,42,0.0,0.0,81,0.00,,,1.42,WeatherDisplay:10.36,2013-06-24 00:53:00,
2013-06-23 19:58:00,72.7,66.2,29.97,NE,39,4.9,4.9,80,0.00,,,1.42,WeatherDisplay:10.36,2013-06-24 00:58:00,
2013-06-23 20:03:00,72.7,66.2,29.97,NE,41,0.0,0.0,80,0.00,,,1.42,WeatherDisplay:10.36,2013-06-24 01:03:00,
2013-06-23 20:08:00,72.7,66.2,29.97,NE,42,4.6,4.6,80,0.00,,,1.42,WeatherDisplay:10.36,2013-06-24 01:08:00,
2013-06-23 20:13:00,72.5,66.0,29.97,NE,37,4.6,4.6,80,0.00,,,1.42,WeatherDisplay:10.36,2013-06-24 01:13:00,
2013-06-23 20:18:00,72.5,66.0,29.97,NE,38,5.8,5.8,80,0.00,,,1.42,WeatherDisplay:10.36,2013-06-24 01:18:00,
2013-06-23 20:23:00,72.5,66.0,29.97,NE,39,5.8,5.8,80,0.00,,,1.42,WeatherDisplay:10.36,2013-06-24 01:23:00,
2013-06-23 20:28:00,72.5,66.0,29.97,NE,35,5.8,5.8,80,0.00,,,1.42,WeatherDisplay:10.36,2013-06-24 01:28:00,
2013-06-23 20:33:00,72.5,65.6,29.97,NE,35,0.0,0.0,79,0.00,,,1.42,WeatherDisplay:10.36,2013-06-24 01:33:00,
2013-06-23 20:38:00,72.5,65.6,29.97,NE,35,3.6,3.6,79,0.00,,,1.42,WeatherDisplay:10.36,2013-06-24 01:38:00,
2013-06-23 20:43:00,72.5,65.6,29.97,NE,34,0.0,0.0,79,0.00,,,1.42,WeatherDisplay:10.36,2013-06-24 01:43:00,
2013-06-23 20:48:00,72.3,65.4,29.97,NE,35,0.0,0.0,79,0.00,,,1.42,WeatherDisplay:10.36,2013-06-24 01:48:00,
2013-06-23 20:53:00,72.3,65.1,29.97,NE,34,4.6,4.6,78,0.00,,,1.42,WeatherDisplay:10.36,2013-06-24 01:53:00,
2013-06-23 20:58:00,72.3,65.1,29.97,NE,36,5.8,5.8,78,0.00,,,1.42,WeatherDisplay:10.36,2013-06-24 01:58:00,
2013-06-23 21:03:00,72.3,65.1,29.97,NE,38,6.3,6.3,78,0.00,,,1.42,WeatherDisplay:10.36,2013-06-24 02:03:00,
2013-06-23 21:08:00,72.3,64.7,29.97,NE,34,3.6,3.6,77,0.00,,,1.42,WeatherDisplay:10.36,2013-06-24 02:08:00,
2013-06-23 21:13:00,72.1,64.5,29.97,NE,38,4.5,4.5,77,0.00,,,1.42,WeatherDisplay:10.36,2013-06-24 02:13:00,
2013-06-23 21:18:00,72.1,64.5,29.97,NE,34,4.6,0.0,77,0.00,,,1.42,WeatherDisplay:10.36,2013-06-24 02:18:00,
2013-06-23 21:24:00,72.1,64.5,29.97,NE,37,4.0,0.0,77,0.00,,,1.42,WeatherDisplay:10.36,2013-06-24 02:24:00,
2013-06-23 21:29:00,72.0,64.0,29.97,NE,39,4.0,4.0,76,0.00,,,1.42,WeatherDisplay:10.36,2013-06-24 02:29:00,
2013-06-23 21:34:00,72.0,64.0,29.97,NE,38,2.3,0.0,76,0.00,,,1.42,WeatherDisplay:10.36,2013-06-24 02:34:00,
2013-06-23 21:40:00,72.0,64.0,29.97,NE,39,5.4,5.4,76,0.00,,,1.42,WeatherDisplay:10.36,2013-06-24 02:40:00,
2013-06-23 21:45:00,72.0,64.0,29.97,NE,42,5.8,5.8,76,0.00,,,1.42,WeatherDisplay:10.36,2013-06-24 02:45:00,
2013-06-23 21:50:00,71.8,63.8,29.97,NE,41,4.0,0.0,76,0.00,,,1.42,WeatherDisplay:10.36,2013-06-24 02:50:00,
2013-06-23 21:55:00,71.8,63.8,29.97,NE,43,6.7,6.7,76,0.00,,,1.42,WeatherDisplay:10.36,2013-06-24 02:55:00,
2013-06-23 22:00:00,71.8,63.8,29.97,NE,39,5.8,5.8,76,0.00,,,1.42,WeatherDisplay:10.36,2013-06-24 03:00:00,
2013-06-23 22:05:00,71.8,64.2,30.00,NE,39,3.5,0.0,77,0.00,,,1.42,WeatherDisplay:10.36,2013-06-24 03:05:00,
2013-06-23 22:10:00,71.8,64.2,30.00,NE,41,0.0,0.0,77,0.00,,,1.42,WeatherDisplay:10.36,2013-06-24 03:10:00,
2013-06-23 22:15:00,71.6,64.0,30.00,NE,42,0.0,0.0,77,0.00,,,1.42,WeatherDisplay:10.36,2013-06-24 03:15:00,
2013-06-23 22:20:00,71.8,64.2,30.00,NE,41,0.0,0.0,77,0.00,,,1.42,WeatherDisplay:10.36,2013-06-24 03:20:00,
2013-06-23 22:25:00,71.6,64.0,30.00,NE,41,0.0,0.0,77,0.00,,,1.42,WeatherDisplay:10.36,2013-06-24 03:25:00,
2013-06-23 22:30:00,71.6,64.0,30.00,NE,41,3.5,0.0,77,0.00,,,1.42,WeatherDisplay:10.36,2013-06-24 03:30:00,
2013-06-23 22:35:00,71.6,64.0,30.00,NE,42,0.0,0.0,77,0.00,,,1.42,WeatherDisplay:10.36,2013-06-24 03:35:00,
2013-06-23 22:40:00,71.6,64.0,30.00,NE,43,0.0,0.0,77,0.00,,,1.42,WeatherDisplay:10.36,2013-06-24 03:40:00,
2013-06-23 22:45:00,71.6,64.0,30.00,NE,39,4.6,4.6,77,0.00,,,1.42,WeatherDisplay:10.36,2013-06-24 03:45:00,
2013-06-23 22:51:00,71.6,64.0,30.00,NE,41,0.0,0.0,77,0.00,,,1.42,WeatherDisplay:10.36,2013-06-24 03:51:00,
2013-06-23 22:56:00,71.6,64.0,30.00,NE,41,0.0,0.0,77,0.00,,,1.42,WeatherDisplay:10.36,2013-06-24 03:56:00,
2013-06-23 23:01:00,71.6,64.0,30.00,NE,41,0.0,0.0,77,0.00,,,1.42,WeatherDisplay:10.36,2013-06-24 04:01:00,
2013-06-23 23:03:00,71.6,64.0,30.00,NE,40,0.0,0.0,77,0.00,,,1.42,WeatherDisplay:10.36,2013-06-24 04:03:00,
2013-06-23 23:04:00,71.6,64.0,30.00,NE,40,0.0,0.0,77,0.00,,,1.42,WeatherDisplay:10.36,2013-06-24 04:04:00,
2013-06-23 23:09:00,71.4,63.8,30.00,NE,41,0.0,0.0,77,0.00,,,1.42,WeatherDisplay:10.36,2013-06-24 04:09:00,
2013-06-23 23:12:00,71.4,63.8,30.00,NE,40,0.0,0.0,77,0.00,,,1.42,WeatherDisplay:10.36,2013-06-24 04:12:00,
2013-06-23 23:13:00,71.4,63.8,30.00,NE,41,0.0,0.0,77,0.00,,,1.42,WeatherDisplay:10.36,2013-06-24 04:13:00,
2013-06-23 23:18:00,71.4,63.8,30.00,NE,41,0.0,0.0,77,0.00,,,1.42,WeatherDisplay:10.36,2013-06-24 04:18:00,
2013-06-23 23:23:00,71.2,63.7,30.00,NE,40,0.0,0.0,77,0.00,,,1.42,WeatherDisplay:10.36,2013-06-24 04:23:00,
2013-06-23 23:28:00,71.2,63.7,30.00,NE,42,0.0,0.0,77,0.00,,,1.42,WeatherDisplay:10.36,2013-06-24 04:28:00,
2013-06-23 23:33:00,71.1,63.5,30.00,NE,41,0.0,0.0,77,0.00,,,1.42,WeatherDisplay:10.36,2013-06-24 04:33:00,
2013-06-23 23:38:00,71.1,63.5,30.00,NE,41,0.0,0.0,77,0.00,,,1.42,WeatherDisplay:10.36,2013-06-24 04:38:00,
2013-06-23 23:43:00,71.1,63.5,30.00,NE,40,0.0,0.0,77,0.00,,,1.42,WeatherDisplay:10.36,2013-06-24 04:43:00,
2013-06-23 23:48:00,71.1,63.5,30.00,NE,40,0.0,0.0,77,0.00,,,1.42,WeatherDisplay:10.36,2013-06-24 04:48:00,
2013-06-23 23:53:00,71.1,63.5,30.00,NE,42,4.0,4.0,77,0.00,,,1.42,WeatherDisplay:10.36,2013-06-24 04:53:00,
2013-06-23 23:58:00,71.1,63.9,30.00,NE,41,3.5,0.0,78,0.00,,,1.42,WeatherDisplay:10.36,2013-06-24 04:58:00,